TimeEDT,TemperatureF,Dew PointF,Humidity,Sea Level PressureIn,VisibilityMPH,Wind Direction,Wind SpeedMPH,Gust SpeedMPH,PrecipitationIn,Events,Conditions,WindDirDegrees,DateUTC
12:54 AM,37.0,35.1,93,30.21,10.0,Calm,Calm,-,N/A,,Clear,0,2012-09-28 04:54:00
1:54 AM,36.0,34.0,93,30.20,10.0,Calm,Calm,-,N/A,,Clear,0,2012-09-28 05:54:00
2:25 AM,35.6,35.6,100,30.19,2.0,West,4.6,-,N/A,,Scattered Clouds,260,2012-09-28 06:25:00
2:29 AM,35.6,35.6,100,30.19,1.0,WSW,3.5,-,N/A,,Mist,250,2012-09-28 06:29:00
2:54 AM,36.0,35.1,97,30.20,1.2,West,5.8,-,N/A,,Mostly Cloudy,260,2012-09-28 06:54:00
3:18 AM,37.4,37.4,100,30.19,0.5,WSW,5.8,-,N/A,Fog,Fog,250,2012-09-28 07:18:00
3:34 AM,37.4,37.4,100,30.18,1.2,WSW,3.5,-,N/A,,Overcast,250,2012-09-28 07:34:00
3:41 AM,37.4,37.4,100,30.18,0.2,WSW,3.5,-,N/A,Fog,Fog,250,2012-09-28 07:41:00
3:54 AM,37.0,37.0,100,30.20,0.2,Calm,Calm,-,N/A,Fog,Fog,0,2012-09-28 07:54:00
4:06 AM,37.4,37.4,100,30.18,1.0,Calm,Calm,-,N/A,,Mist,0,2012-09-28 08:06:00
4:19 AM,37.4,37.4,100,30.18,0.8,Calm,Calm,-,N/A,,Mist,0,2012-09-28 08:19:00
4:24 AM,37.4,35.6,93,30.18,2.0,Calm,Calm,-,N/A,,Mostly Cloudy,0,2012-09-28 08:24:00
4:27 AM,37.4,35.6,93,30.18,4.0,Calm,Calm,-,N/A,,Scattered Clouds,0,2012-09-28 08:27:00
4:54 AM,36.0,35.1,97,30.19,9.0,Calm,Calm,-,N/A,,Clear,0,2012-09-28 08:54:00
5:09 AM,35.6,33.8,93,30.18,4.0,Calm,Calm,-,N/A,,Scattered Clouds,0,2012-09-28 09:09:00
5:12 AM,35.6,33.8,93,30.18,2.0,Calm,Calm,-,N/A,,Mostly Cloudy,0,2012-09-28 09:12:00
5:19 AM,35.6,33.8,93,30.18,1.0,Calm,Calm,-,N/A,,Mist,0,2012-09-28 09:19:00
5:29 AM,35.6,35.6,100,30.18,3.0,Calm,Calm,-,N/A,,Mostly Cloudy,0,2012-09-28 09:29:00
5:37 AM,35.6,33.8,93,30.18,1.8,Calm,Calm,-,N/A,,Overcast,0,2012-09-28 09:37:00
5:54 AM,35.1,33.1,92,30.19,0.8,Calm,Calm,-,N/A,,Mist,0,2012-09-28 09:54:00
6:02 AM,33.8,33.8,100,30.18,1.2,Calm,Calm,-,N/A,,Partly Cloudy,0,2012-09-28 10:02:00
6:05 AM,33.8,33.8,100,30.18,4.0,Calm,Calm,-,N/A,,Partly Cloudy,0,2012-09-28 10:05:00
6:26 AM,33.8,33.8,100,30.18,2.0,Calm,Calm,-,N/A,,Mostly Cloudy,0,2012-09-28 10:26:00
6:33 AM,33.8,33.8,100,30.18,1.0,Calm,Calm,-,N/A,,Mist,0,2012-09-28 10:33:00
6:54 AM,34.0,33.1,96,30.20,1.2,Calm,Calm,-,N/A,,Overcast,0,2012-09-28 10:54:00
7:21 AM,35.6,33.8,93,30.18,0.8,Calm,Calm,-,N/A,,Overcast,0,2012-09-28 11:21:00
7:32 AM,35.6,35.6,100,30.18,0.2,Calm,Calm,-,N/A,Fog,Fog,0,2012-09-28 11:32:00
7:42 AM,35.6,35.6,100,30.18,0.8,Calm,Calm,-,N/A,,Mist,0,2012-09-28 11:42:00
7:54 AM,36.0,35.1,97,30.20,1.0,Calm,Calm,-,N/A,,Mist,0,2012-09-28 11:54:00
7:59 AM,35.6,35.6,100,30.18,3.0,Calm,Calm,-,N/A,,Overcast,0,2012-09-28 11:59:00
8:01 AM,35.6,35.6,100,30.18,4.0,Calm,Calm,-,N/A,,Mostly Cloudy,0,2012-09-28 12:01:00
8:54 AM,39.0,39.0,100,30.20,7.0,Calm,Calm,-,N/A,,Mostly Cloudy,0,2012-09-28 12:54:00
9:54 AM,46.9,45.0,93,30.20,10.0,Calm,Calm,-,N/A,,Mostly Cloudy,0,2012-09-28 13:54:00
10:54 AM,55.0,46.0,72,30.20,10.0,Calm,Calm,-,N/A,,Mostly Cloudy,0,2012-09-28 14:54:00
11:54 AM,59.0,42.1,53,30.19,10.0,North,6.9,-,N/A,,Scattered Clouds,10,2012-09-28 15:54:00
12:54 PM,60.1,42.1,51,30.18,10.0,Variable,5.8,-,N/A,,Scattered Clouds,0,2012-09-28 16:54:00
1:54 PM,63.0,42.1,46,30.16,10.0,Calm,Calm,-,N/A,,Partly Cloudy,0,2012-09-28 17:54:00
2:54 PM,64.0,39.0,40,30.13,10.0,Calm,Calm,-,N/A,,Partly Cloudy,0,2012-09-28 18:54:00
3:54 PM,63.0,44.1,50,30.12,10.0,ESE,3.5,-,N/A,,Partly Cloudy,120,2012-09-28 19:54:00
4:54 PM,61.0,46.0,58,30.11,10.0,ESE,6.9,-,N/A,,Clear,110,2012-09-28 20:54:00
5:54 PM,57.9,45.0,62,30.12,10.0,ESE,4.6,-,N/A,,Clear,110,2012-09-28 21:54:00
6:54 PM,55.0,45.0,69,30.12,10.0,ESE,4.6,-,N/A,,Clear,110,2012-09-28 22:54:00
7:54 PM,48.9,45.0,86,30.12,10.0,Calm,Calm,-,N/A,,Clear,0,2012-09-28 23:54:00
8:54 PM,46.0,43.0,89,30.11,10.0,Calm,Calm,-,N/A,,Clear,0,2012-09-29 00:54:00
9:54 PM,44.1,42.1,93,30.10,10.0,Calm,Calm,-,N/A,,Clear,0,2012-09-29 01:54:00
10:54 PM,43.0,41.0,93,30.10,10.0,Calm,Calm,-,N/A,,Clear,0,2012-09-29 02:54:00
11:54 PM,43.0,39.9,89,30.10,10.0,Calm,Calm,-,N/A,,Clear,0,2012-09-29 03:54:00